User: anonymous   Login
Location: Unspecified
(0.0000°N, 0.0000°E)
Time: 03:33:07
(UTC+00:00)
Language:

Uosat F - Orbit

View from above orbital plane
View from above orbital plane
View from above satellite
View from above satellite

Ground track
Ground track

The orbit data is extracted from the following two-line orbital elements,

1 21575U 91050B   17112.94088024 +.00000057 +00000-0 +32384-4 0  9998
2 21575 098.7600 128.0216 0008452 103.0573 257.1559 14.40793309353128
Epoch (UTC): 22 April 2017 22:34:52
Eccentricity: 0.0008452
inclination: 98.7600°
perigee height: 750 km
apogee height: 762 km
right ascension of ascending node: 128.0216°
argument of perigee: 103.0573°
revolutions per day: 14.40793309
mean anomaly at epoch: 257.1559°
orbit number at epoch: 35312

The dashed part of the orbit path shows where the satellite is in the earth's shadow,  

DLR